Volver al catálogo

SL-3 R/B

ActivoPO
NORAD 11289·ROCKET BODY·🇷🇺 Russia

Lanzado Mar 1, 1979 desde Plesetsk Cosmodrome

Loading…

Próximos Pases (próximas 24 horas)

TLE

ActualizadoSource: Space-Track

Época: Sep 14, 2026, 00:59 UTC

1 11289U 79021B   26257.04163440  .00000133  00000-0  64098-4 0  9992
2 11289  81.2443 109.7360 0075450  12.5050 347.7971 14.12125944446897

Sigue SL-3 R/B en tiempo real con AllMySat

Download on the App Store